Location: ??
(35.5052°N, 139.7262°E)
Time: 18:11:44
(UTC+00:00)

Cosmos 1607 - Pass Details

Date: 20 June 2021
Orbit: 911 x 991 km, 65.0° (Epoch: 30 July)

Event Time Altitude Azimuth Distance (km) Brightness Sun altitude
Rises 13:22:44 0° 335° (NNW) 3,689 8.3 -28.1°
Reaches altitude 10° 13:25:25 10° 340° (NNW) 2,729 7.3 -28.3°
Maximum altitude 13:31:38 51° 56° (NE) 1,190 4.4 -28.7°
Enters shadow 13:32:23 49° 80° (E) 1,224 4.4 -28.7°
